,,PressureMeas_1m,,PRMeasQMR101_1,,RHStat155_1m_1,,SRMeasQMS101R_1m,,TAStat155_1m_1,,GenWind_1,,GenWind_1,
2018-09-30, 00:00:06,VALID,917.263,VALID,0.0,VALID,97.958,VALID,0.028,VALID,21.11,VALID,21.0,VALID,0.0,
2018-09-30, 00:01:06,VALID,917.279,VALID,0.0,VALID,97.992,VALID,0.032,VALID,21.114,VALID,21.0,VALID,0.0,
2018-09-30, 00:02:06,VALID,917.27,VALID,0.0,VALID,98.01,VALID,0.019,VALID,21.127,VALID,21.0,VALID,0.0,
2018-09-30, 00:03:06,VALID,917.273,VALID,0.0,VALID,98.002,VALID,0.016,VALID,21.139,VALID,21.0,VALID,0.0,
2018-09-30, 00:04:06,VALID,917.267,VALID,0.0,VALID,97.916,VALID,0.018,VALID,21.124,VALID,21.0,VALID,0.0,
2018-09-30, 00:05:06,VALID,917.237,VALID,0.0,VALID,97.918,VALID,0.035,VALID,21.135,VALID,21.0,VALID,0.0,
2018-09-30, 00:06:06,VALID,917.217,VALID,0.0,VALID,97.836,VALID,0.032,VALID,21.118,VALID,8.0,VALID,0.0,
2018-09-30, 00:07:06,VALID,917.203,VALID,0.0,VALID,97.824,VALID,0.004,VALID,21.134,INVALID,360.0,VALID,0.0,
2018-09-30, 00:08:06,VALID,917.195,VALID,0.0,VALID,97.833,VALID,0.026,VALID,21.164,INVALID,360.0,VALID,0.0,
2018-09-30, 00:09:06,VALID,917.19,VALID,0.0,VALID,97.772,VALID,0.018,VALID,21.176,INVALID,360.0,VALID,0.0,
2018-09-30, 00:10:06,VALID,917.189,VALID,0.0,VALID,97.736,VALID,0.018,VALID,21.173,INVALID,360.0,VALID,0.0,
2018-09-30, 00:11:06,VALID,917.187,VALID,0.0,VALID,97.73,VALID,0.031,VALID,21.186,INVALID,360.0,VALID,0.0,
2018-09-30, 00:12:06,VALID,917.172,VALID,0.0,VALID,97.687,VALID,0.021,VALID,21.189,INVALID,360.0,VALID,0.0,
2018-09-30, 00:13:06,VALID,917.161,VALID,0.0,VALID,97.656,VALID,0.023,VALID,21.195,INVALID,360.0,VALID,0.0,
2018-09-30, 00:14:06,VALID,917.164,VALID,0.0,VALID,97.673,VALID,0.013,VALID,21.209,INVALID,360.0,VALID,0.0,
2018-09-30, 00:15:06,VALID,917.163,VALID,0.0,VALID,97.649,VALID,0.024,VALID,21.215,INVALID,360.0,VALID,0.0,
2018-09-30, 00:16:06,VALID,917.142,VALID,0.0,VALID,97.549,VALID,0.015,VALID,21.192,INVALID,360.0,VALID,0.0,
2018-09-30, 00:17:06,VALID,917.135,VALID,0.0,VALID,97.459,VALID,0.024,VALID,21.184,INVALID,360.0,VALID,0.0,
2018-09-30, 00:18:06,VALID,917.099,VALID,0.0,VALID,97.313,VALID,0.023,VALID,21.138,INVALID,360.0,VALID,0.0,
2018-09-30, 00:19:06,VALID,917.094,VALID,0.0,VALID,97.415,VALID,0.023,VALID,21.135,INVALID,360.0,VALID,0.0,
2018-09-30, 00:20:06,VALID,917.07,VALID,0.0,VALID,97.571,VALID,0.013,VALID,21.176,INVALID,360.0,VALID,0.0,
2018-09-30, 00:21:06,VALID,917.057,VALID,0.0,VALID,97.625,VALID,0.012,VALID,21.208,INVALID,360.0,VALID,0.0,
2018-09-30, 00:22:06,VALID,917.036,VALID,0.0,VALID,97.673,VALID,0.016,VALID,21.235,INVALID,360.0,VALID,0.0,
2018-09-30, 00:23:06,VALID,917.025,VALID,0.0,VALID,97.536,VALID,-0.014,VALID,21.204,INVALID,360.0,VALID,0.0,
2018-09-30, 00:24:06,VALID,917.024,VALID,0.0,VALID,97.319,VALID,-0.002,VALID,21.141,INVALID,360.0,VALID,0.0,
2018-09-30, 00:25:06,VALID,917.005,VALID,0.0,VALID,97.269,VALID,-0.023,VALID,21.088,INVALID,360.0,VALID,0.0,
2018-09-30, 00:26:06,VALID,917.002,VALID,0.0,VALID,97.294,VALID,-0.014,VALID,21.053,INVALID,360.0,VALID,0.0,
2018-09-30, 00:27:06,VALID,916.991,VALID,0.0,VALID,97.406,VALID,-0.003,VALID,21.032,INVALID,360.0,VALID,0.0,
2018-09-30, 00:28:06,VALID,916.982,VALID,0.0,VALID,97.484,VALID,0.001,VALID,21.029,INVALID,360.0,VALID,0.0,
2018-09-30, 00:29:06,VALID,916.973,VALID,0.0,VALID,97.535,VALID,0.012,VALID,21.035,INVALID,360.0,VALID,0.0,
2018-09-30, 00:30:06,VALID,916.956,VALID,0.0,VALID,97.571,VALID,-0.009,VALID,21.04,INVALID,360.0,VALID,0.0,
2018-09-30, 00:31:06,VALID,916.934,VALID,0.0,VALID,97.569,VALID,-0.018,VALID,21.028,INVALID,360.0,VALID,0.0,
2018-09-30, 00:32:06,VALID,916.898,VALID,0.0,VALID,97.485,VALID,-0.026,VALID,20.996,INVALID,360.0,VALID,0.0,
2018-09-30, 00:33:06,VALID,916.907,VALID,0.0,VALID,97.526,VALID,-0.005,VALID,20.995,INVALID,360.0,VALID,0.0,
2018-09-30, 00:34:06,VALID,916.88,VALID,0.0,VALID,97.46,VALID,-0.003,VALID,20.98,INVALID,360.0,VALID,0.0,
2018-09-30, 00:35:06,VALID,916.876,VALID,0.0,VALID,97.525,VALID,-0.011,VALID,20.994,INVALID,360.0,VALID,0.0,
2018-09-30, 00:36:06,VALID,916.863,VALID,0.0,VALID,97.409,VALID,-0.027,VALID,20.974,INVALID,360.0,VALID,0.0,
2018-09-30, 00:37:06,VALID,916.853,VALID,0.0,VALID,97.446,VALID,-0.018,VALID,20.999,INVALID,360.0,VALID,0.0,
2018-09-30, 00:38:06,VALID,916.867,VALID,0.0,VALID,97.42,VALID,0.005,VALID,21.015,INVALID,360.0,VALID,0.0,
2018-09-30, 00:39:06,VALID,916.855,VALID,0.0,VALID,97.471,VALID,-0.011,VALID,21.06,INVALID,360.0,VALID,0.0,
2018-09-30, 00:40:06,VALID,916.868,VALID,0.0,VALID,97.479,VALID,-0.005,VALID,21.088,INVALID,360.0,VALID,0.0,
2018-09-30, 00:41:06,VALID,916.849,VALID,0.0,VALID,97.412,VALID,-0.015,VALID,21.114,INVALID,360.0,VALID,0.0,
2018-09-30, 00:42:06,VALID,916.833,VALID,0.0,VALID,97.313,VALID,0.005,VALID,21.136,VALID,254.0,VALID,0.0,
2018-09-30, 00:43:06,VALID,916.819,VALID,0.0,VALID,97.188,VALID,0.014,VALID,21.138,VALID,254.0,VALID,0.0,
2018-09-30, 00:44:06,VALID,916.798,VALID,0.0,VALID,96.999,VALID,0.002,VALID,21.127,VALID,254.0,VALID,0.0,
2018-09-30, 00:45:06,VALID,916.774,VALID,0.0,VALID,96.951,VALID,-0.015,VALID,21.129,VALID,254.0,VALID,0.0,
2018-09-30, 00:46:06,VALID,916.757,VALID,0.0,VALID,96.924,VALID,-0.029,VALID,21.139,VALID,266.0,VALID,0.0,
2018-09-30, 00:47:06,VALID,916.737,VALID,0.0,VALID,96.975,VALID,0.001,VALID,21.16,VALID,279.0,VALID,0.0,
2018-09-30, 00:48:06,VALID,916.713,VALID,0.0,VALID,96.937,VALID,0.001,VALID,21.168,VALID,280.0,VALID,0.0,
2018-09-30, 00:49:06,VALID,916.71,VALID,0.0,VALID,96.578,VALID,-0.007,VALID,21.099,VALID,280.0,VALID,0.0,
2018-09-30, 00:50:06,VALID,916.709,VALID,0.0,VALID,96.506,VALID,0.003,VALID,21.048,VALID,279.0,VALID,0.0,
2018-09-30, 00:51:06,VALID,916.696,VALID,0.0,VALID,96.676,VALID,-0.014,VALID,21.033,INVALID,360.0,VALID,0.0,
2018-09-30, 00:52:06,VALID,916.69,VALID,0.0,VALID,96.878,VALID,-0.007,VALID,21.036,INVALID,360.0,VALID,0.0,
2018-09-30, 00:53:06,VALID,916.707,VALID,0.0,VALID,96.912,VALID,-0.001,VALID,21.024,INVALID,360.0,VALID,0.0,
2018-09-30, 00:54:06,VALID,916.714,VALID,0.0,VALID,96.997,VALID,-0.002,VALID,21.02,INVALID,360.0,VALID,0.0,
2018-09-30, 00:55:06,VALID,916.747,VALID,0.0,VALID,97.041,VALID,-0.0,VALID,21.004,INVALID,360.0,VALID,0.0,
2018-09-30, 00:56:06,VALID,916.735,VALID,0.0,VALID,97.156,VALID,0.013,VALID,20.986,INVALID,360.0,VALID,0.0,
2018-09-30, 00:57:06,VALID,916.731,VALID,0.0,VALID,97.153,VALID,0.008,VALID,20.94,VALID,278.0,VALID,0.0,
2018-09-30, 00:58:06,VALID,916.714,VALID,0.0,VALID,97.287,VALID,-0.002,VALID,20.908,VALID,280.0,VALID,0.0,
2018-09-30, 00:59:06,VALID,916.714,VALID,0.0,VALID,97.454,VALID,0.002,VALID,20.903,VALID,280.0,VALID,0.0,
2018-09-30, 01:00:06,VALID,916.726,VALID,0.0,VALID,97.647,VALID,0.005,VALID,20.904,VALID,262.0,VALID,0.0,
2018-09-30, 01:01:06,VALID,916.699,VALID,0.0,VALID,97.701,VALID,0.015,VALID,20.901,VALID,259.0,VALID,0.0,
2018-09-30, 01:02:06,VALID,916.699,VALID,0.0,VALID,97.763,VALID,0.01,VALID,20.907,INVALID,360.0,VALID,0.0,
2018-09-30, 01:03:06,VALID,916.688,VALID,0.0,VALID,97.818,VALID,0.009,VALID,20.907,INVALID,360.0,VALID,0.0,
2018-09-30, 01:04:06,VALID,916.678,VALID,0.0,VALID,97.851,VALID,0.001,VALID,20.908,INVALID,360.0,VALID,0.0,
2018-09-30, 01:05:06,VALID,916.667,VALID,0.0,VALID,97.894,VALID,0.005,VALID,20.91,INVALID,360.0,VALID,0.0,
2018-09-30, 01:06:06,VALID,916.648,VALID,0.0,VALID,97.88,VALID,-0.006,VALID,20.898,INVALID,360.0,VALID,0.0,
2018-09-30, 01:07:06,VALID,916.625,VALID,0.0,VALID,97.872,VALID,0.008,VALID,20.887,INVALID,360.0,VALID,0.0,
2018-09-30, 01:08:06,VALID,916.602,VALID,0.0,VALID,97.835,VALID,0.011,VALID,20.867,INVALID,360.0,VALID,0.0,
2018-09-30, 01:09:06,VALID,916.585,VALID,0.0,VALID,97.808,VALID,-0.005,VALID,20.878,INVALID,360.0,VALID,0.0,
2018-09-30, 01:10:06,VALID,916.563,VALID,0.0,VALID,97.804,VALID,-0.015,VALID,20.888,INVALID,360.0,VALID,0.0,
2018-09-30, 01:11:06,VALID,916.554,VALID,0.0,VALID,97.813,VALID,-0.021,VALID,20.894,INVALID,360.0,VALID,0.0,
2018-09-30, 01:12:06,VALID,916.529,VALID,0.0,VALID,97.773,VALID,0.006,VALID,20.896,INVALID,360.0,VALID,0.0,
2018-09-30, 01:13:06,VALID,916.505,VALID,0.0,VALID,97.657,VALID,-0.009,VALID,20.877,INVALID,360.0,VALID,0.0,
2018-09-30, 01:14:06,VALID,916.503,VALID,0.0,VALID,97.416,VALID,-0.013,VALID,20.808,INVALID,360.0,VALID,0.0,
2018-09-30, 01:15:06,VALID,916.463,VALID,0.0,VALID,97.265,VALID,0.006,VALID,20.75,VALID,119.0,VALID,0.0,
2018-09-30, 01:16:06,VALID,916.441,VALID,0.0,VALID,97.187,VALID,0.024,VALID,20.71,VALID,98.0,VALID,0.0,
2018-09-30, 01:17:06,VALID,916.412,VALID,0.0,VALID,97.376,VALID,0.029,VALID,20.713,VALID,92.0,VALID,0.0,
2018-09-30, 01:18:06,VALID,916.378,VALID,0.0,VALID,97.431,VALID,0.033,VALID,20.694,VALID,85.0,VALID,0.0,
2018-09-30, 01:19:06,VALID,916.357,VALID,0.0,VALID,97.42,VALID,0.03,VALID,20.643,VALID,70.0,VALID,0.0,
2018-09-30, 01:20:06,VALID,916.322,VALID,0.0,VALID,97.409,VALID,0.027,VALID,20.587,VALID,57.0,VALID,0.0,
2018-09-30, 01:21:06,VALID,916.302,VALID,0.0,VALID,97.542,VALID,0.012,VALID,20.573,VALID,51.0,VALID,0.0,
2018-09-30, 01:22:06,VALID,916.297,VALID,0.0,VALID,97.702,VALID,0.016,VALID,20.557,VALID,49.0,VALID,0.0,
2018-09-30, 01:23:06,VALID,916.288,VALID,0.0,VALID,97.775,VALID,0.015,VALID,20.532,VALID,49.0,VALID,0.0,
2018-09-30, 01:24:06,VALID,916.292,VALID,0.0,VALID,97.894,VALID,0.005,VALID,20.524,VALID,49.0,VALID,0.0,
2018-09-30, 01:25:06,VALID,916.286,VALID,0.0,VALID,98.012,VALID,0.005,VALID,20.536,VALID,49.0,VALID,0.0,
2018-09-30, 01:26:06,VALID,916.27,VALID,0.0,VALID,98.076,VALID,0.007,VALID,20.545,VALID,49.0,VALID,0.0,
2018-09-30, 01:27:06,VALID,916.288,VALID,0.0,VALID,98.128,VALID,0.008,VALID,20.557,VALID,49.0,VALID,0.0,
2018-09-30, 01:28:06,VALID,916.275,VALID,0.0,VALID,98.152,VALID,0.014,VALID,20.567,VALID,49.0,VALID,0.0,
2018-09-30, 01:29:06,VALID,916.266,VALID,0.0,VALID,98.185,VALID,0.013,VALID,20.602,VALID,50.0,VALID,0.0,
2018-09-30, 01:30:06,VALID,916.257,VALID,0.0,VALID,98.169,VALID,0.005,VALID,20.604,VALID,49.0,VALID,0.0,
2018-09-30, 01:31:06,VALID,916.262,VALID,0.0,VALID,98.069,VALID,0.009,VALID,20.581,VALID,50.0,VALID,0.0,
2018-09-30, 01:32:06,VALID,916.256,VALID,0.0,VALID,98.039,VALID,0.009,VALID,20.584,VALID,49.0,VALID,0.0,
2018-09-30, 01:33:06,VALID,916.25,VALID,0.0,VALID,97.993,VALID,0.016,VALID,20.579,VALID,103.0,VALID,0.0,
2018-09-30, 01:34:06,VALID,916.236,VALID,0.0,VALID,97.969,VALID,0.004,VALID,20.584,VALID,121.0,VALID,0.0,
2018-09-30, 01:35:06,VALID,916.229,VALID,0.0,VALID,97.946,VALID,0.015,VALID,20.609,VALID,121.0,VALID,0.0,
2018-09-30, 01:36:06,VALID,916.207,VALID,0.0,VALID,97.925,VALID,0.016,VALID,20.631,VALID,121.0,VALID,0.0,
2018-09-30, 01:37:06,VALID,916.178,VALID,0.0,VALID,97.887,VALID,0.015,VALID,20.643,VALID,121.0,VALID,0.0,
2018-09-30, 01:38:06,VALID,916.148,VALID,0.0,VALID,97.881,VALID,-0.013,VALID,20.664,VALID,121.0,VALID,0.0,
2018-09-30, 01:39:06,VALID,916.134,VALID,0.0,VALID,97.86,VALID,-0.024,VALID,20.677,VALID,121.0,VALID,0.0,
2018-09-30, 01:40:06,VALID,916.107,VALID,0.0,VALID,97.784,VALID,-0.03,VALID,20.682,VALID,121.0,VALID,0.0,
2018-09-30, 01:41:06,VALID,916.09,VALID,0.0,VALID,97.736,VALID,-0.023,VALID,20.703,VALID,121.0,VALID,0.0,
2018-09-30, 01:42:06,VALID,916.075,VALID,0.0,VALID,97.539,VALID,-0.032,VALID,20.675,VALID,121.0,VALID,0.0,
2018-09-30, 01:43:06,VALID,916.099,VALID,0.0,VALID,97.397,VALID,-0.016,VALID,20.644,VALID,121.0,VALID,0.0,
2018-09-30, 01:44:06,VALID,916.107,VALID,0.0,VALID,97.368,VALID,-0.025,VALID,20.632,VALID,122.0,VALID,0.0,
2018-09-30, 01:45:06,VALID,916.092,VALID,0.0,VALID,97.342,VALID,-0.031,VALID,20.623,VALID,122.0,VALID,0.0,
2018-09-30, 01:46:06,VALID,916.082,VALID,0.0,VALID,97.36,VALID,-0.034,VALID,20.63,VALID,122.0,VALID,0.0,
2018-09-30, 01:47:06,VALID,916.056,VALID,0.0,VALID,97.378,VALID,-0.021,VALID,20.631,VALID,121.0,VALID,0.0,
2018-09-30, 01:48:06,VALID,916.041,VALID,0.0,VALID,97.432,VALID,-0.017,VALID,20.641,VALID,121.0,VALID,0.0,
2018-09-30, 01:49:06,VALID,916.012,VALID,0.0,VALID,97.534,VALID,-0.033,VALID,20.646,VALID,122.0,VALID,0.0,
2018-09-30, 01:50:06,VALID,915.971,VALID,0.0,VALID,97.616,VALID,-0.025,VALID,20.669,VALID,122.0,VALID,0.0,
2018-09-30, 01:51:06,VALID,915.953,VALID,0.0,VALID,97.709,VALID,-0.028,VALID,20.699,VALID,126.0,VALID,0.0,
2018-09-30, 01:52:06,VALID,915.933,VALID,0.0,VALID,97.719,VALID,-0.028,VALID,20.703,VALID,130.0,VALID,0.0,
2018-09-30, 01:53:06,VALID,915.891,VALID,0.0,VALID,97.686,VALID,-0.011,VALID,20.688,VALID,130.0,VALID,0.0,
2018-09-30, 01:54:06,VALID,915.88,VALID,0.0,VALID,97.611,VALID,-0.004,VALID,20.643,VALID,125.0,VALID,0.0,
2018-09-30, 01:55:06,VALID,915.855,VALID,0.0,VALID,97.648,VALID,-0.0,VALID,20.613,VALID,119.0,VALID,0.0,
2018-09-30, 01:56:06,VALID,915.856,VALID,0.0,VALID,97.72,VALID,-0.007,VALID,20.585,VALID,120.0,VALID,0.0,
2018-09-30, 01:57:06,VALID,915.857,VALID,0.0,VALID,97.849,VALID,-0.021,VALID,20.593,VALID,130.0,VALID,0.0,
2018-09-30, 01:58:06,VALID,915.851,VALID,0.0,VALID,97.99,VALID,-0.011,VALID,20.608,VALID,127.0,VALID,0.0,
2018-09-30, 01:59:06,VALID,915.849,VALID,0.0,VALID,98.064,VALID,-0.007,VALID,20.613,VALID,105.0,VALID,0.0,
2018-09-30, 02:00:06,VALID,915.833,VALID,0.0,VALID,98.124,VALID,-0.004,VALID,20.608,VALID,102.0,VALID,0.0,
2018-09-30, 02:01:06,VALID,915.815,VALID,0.0,VALID,98.13,VALID,-0.003,VALID,20.593,VALID,101.0,VALID,0.0,
2018-09-30, 02:02:06,VALID,915.8,VALID,0.0,VALID,98.156,VALID,0.005,VALID,20.587,VALID,99.0,VALID,0.0,
2018-09-30, 02:03:06,VALID,915.805,VALID,0.0,VALID,98.147,VALID,-0.009,VALID,20.579,VALID,99.0,VALID,0.0,
2018-09-30, 02:04:06,VALID,915.781,VALID,0.0,VALID,98.171,VALID,0.007,VALID,20.58,VALID,99.0,VALID,0.0,
2018-09-30, 02:05:06,VALID,915.774,VALID,0.0,VALID,98.19,VALID,-0.003,VALID,20.595,VALID,98.0,VALID,0.0,
2018-09-30, 02:06:06,VALID,915.737,VALID,0.0,VALID,98.192,VALID,0.003,VALID,20.597,VALID,85.0,VALID,0.0,
2018-09-30, 02:07:06,VALID,915.752,VALID,0.0,VALID,98.149,VALID,-0.002,VALID,20.586,VALID,84.0,VALID,0.0,
2018-09-30, 02:08:06,VALID,915.727,VALID,0.0,VALID,98.056,VALID,0.011,VALID,20.555,VALID,84.0,VALID,0.0,
2018-09-30, 02:09:06,VALID,915.716,VALID,0.0,VALID,98.067,VALID,0.013,VALID,20.551,VALID,84.0,VALID,0.0,
2018-09-30, 02:10:06,VALID,915.711,VALID,0.0,VALID,98.07,VALID,0.012,VALID,20.554,VALID,82.0,VALID,0.0,
2018-09-30, 02:11:06,VALID,915.685,VALID,0.0,VALID,98.054,VALID,0.011,VALID,20.557,VALID,78.0,VALID,0.0,
2018-09-30, 02:12:06,VALID,915.665,VALID,0.0,VALID,98.018,VALID,0.027,VALID,20.551,VALID,76.0,VALID,0.0,
2018-09-30, 02:13:06,VALID,915.656,VALID,0.0,VALID,98.002,VALID,0.021,VALID,20.554,VALID,76.0,VALID,0.0,
2018-09-30, 02:14:06,VALID,915.635,VALID,0.0,VALID,97.953,VALID,0.01,VALID,20.549,VALID,89.0,VALID,0.0,
2018-09-30, 02:15:06,VALID,915.649,VALID,0.0,VALID,97.902,VALID,0.032,VALID,20.54,VALID,99.0,VALID,0.0,
2018-09-30, 02:16:06,VALID,915.644,VALID,0.0,VALID,97.896,VALID,0.046,VALID,20.542,VALID,102.0,VALID,0.0,
2018-09-30, 02:17:06,VALID,915.633,VALID,0.0,VALID,97.896,VALID,0.017,VALID,20.561,VALID,121.0,VALID,0.0,
2018-09-30, 02:18:06,VALID,915.633,VALID,0.0,VALID,97.92,VALID,0.014,VALID,20.592,VALID,142.0,VALID,0.0,
2018-09-30, 02:19:06,VALID,915.622,VALID,0.0,VALID,97.855,VALID,0.019,VALID,20.611,VALID,138.0,VALID,0.0,
2018-09-30, 02:20:06,VALID,915.635,VALID,0.0,VALID,97.783,VALID,0.021,VALID,20.645,INVALID,360.0,VALID,0.0,
2018-09-30, 02:21:06,VALID,915.642,VALID,0.0,VALID,97.704,VALID,0.015,VALID,20.684,VALID,143.0,VALID,0.0,
2018-09-30, 02:22:06,VALID,915.628,VALID,0.0,VALID,97.588,VALID,0.023,VALID,20.712,VALID,143.0,VALID,0.0,
2018-09-30, 02:23:06,VALID,915.635,VALID,0.0,VALID,97.481,VALID,-0.005,VALID,20.736,VALID,143.0,VALID,0.0,
2018-09-30, 02:24:06,VALID,915.634,VALID,0.0,VALID,97.324,VALID,-0.024,VALID,20.725,VALID,143.0,VALID,0.0,
2018-09-30, 02:25:06,VALID,915.647,VALID,0.0,VALID,97.182,VALID,-0.018,VALID,20.713,VALID,143.0,VALID,0.0,
2018-09-30, 02:26:06,VALID,915.678,VALID,0.0,VALID,97.129,VALID,-0.012,VALID,20.704,VALID,143.0,VALID,0.0,
2018-09-30, 02:27:06,VALID,915.68,VALID,0.0,VALID,97.08,VALID,-0.031,VALID,20.698,VALID,143.0,VALID,0.0,
2018-09-30, 02:28:06,VALID,915.704,VALID,0.0,VALID,97.069,VALID,0.001,VALID,20.691,VALID,143.0,VALID,0.0,
2018-09-30, 02:29:06,VALID,915.703,VALID,0.0,VALID,97.054,VALID,-0.0,VALID,20.686,VALID,143.0,VALID,0.0,
2018-09-30, 02:30:06,VALID,915.696,VALID,0.0,VALID,97.108,VALID,-0.007,VALID,20.697,VALID,143.0,VALID,0.0,
2018-09-30, 02:31:06,VALID,915.713,VALID,0.0,VALID,97.128,VALID,-0.0,VALID,20.69,VALID,143.0,VALID,0.0,
2018-09-30, 02:32:06,VALID,915.701,VALID,0.0,VALID,97.133,VALID,-0.006,VALID,20.683,VALID,143.0,VALID,0.0,
2018-09-30, 02:33:06,VALID,915.683,VALID,0.0,VALID,97.076,VALID,-0.031,VALID,20.657,VALID,143.0,VALID,0.0,
2018-09-30, 02:34:06,VALID,915.661,VALID,0.0,VALID,97.11,VALID,-0.004,VALID,20.636,VALID,143.0,VALID,0.0,
2018-09-30, 02:35:06,VALID,915.628,VALID,0.0,VALID,97.166,VALID,-0.004,VALID,20.595,VALID,134.0,VALID,0.0,
2018-09-30, 02:36:06,VALID,915.611,VALID,0.0,VALID,97.358,VALID,-0.016,VALID,20.573,VALID,131.0,VALID,0.0,
2018-09-30, 02:37:06,VALID,915.602,VALID,0.0,VALID,97.327,VALID,-0.019,VALID,20.48,VALID,129.0,VALID,0.0,
2018-09-30, 02:38:06,VALID,915.588,VALID,0.0,VALID,97.324,VALID,0.002,VALID,20.412,VALID,128.0,VALID,0.0,
2018-09-30, 02:39:06,VALID,915.595,VALID,0.0,VALID,97.541,VALID,0.003,VALID,20.398,VALID,128.0,VALID,0.0,
2018-09-30, 02:40:06,VALID,915.571,VALID,0.0,VALID,97.688,VALID,0.006,VALID,20.396,VALID,132.0,VALID,0.0,
2018-09-30, 02:41:06,VALID,915.586,VALID,0.0,VALID,97.756,VALID,0.01,VALID,20.395,VALID,134.0,VALID,0.0,
2018-09-30, 02:42:06,VALID,915.579,VALID,0.0,VALID,97.814,VALID,0.008,VALID,20.394,VALID,134.0,VALID,0.0,
2018-09-30, 02:43:06,VALID,915.573,VALID,0.0,VALID,97.795,VALID,0.004,VALID,20.397,VALID,133.0,VALID,0.0,
2018-09-30, 02:44:06,VALID,915.571,VALID,0.0,VALID,97.773,VALID,0.01,VALID,20.374,VALID,122.0,VALID,0.0,
2018-09-30, 02:45:06,VALID,915.555,VALID,0.0,VALID,97.599,VALID,0.016,VALID,20.313,VALID,104.0,VALID,0.0,
2018-09-30, 02:46:06,VALID,915.523,VALID,0.0,VALID,97.409,VALID,0.008,VALID,20.25,VALID,105.0,VALID,0.0,
2018-09-30, 02:47:06,VALID,915.533,VALID,0.0,VALID,97.238,VALID,0.01,VALID,20.22,VALID,94.0,VALID,0.0,
2018-09-30, 02:48:06,VALID,915.507,VALID,0.0,VALID,97.182,VALID,0.016,VALID,20.205,VALID,88.0,VALID,0.0,
2018-09-30, 02:49:06,VALID,915.497,VALID,0.0,VALID,97.078,VALID,-0.002,VALID,20.185,VALID,92.0,VALID,0.0,
2018-09-30, 02:50:06,VALID,915.484,VALID,0.0,VALID,97.098,VALID,0.01,VALID,20.182,VALID,100.0,VALID,0.0,
2018-09-30, 02:51:06,VALID,915.463,VALID,0.0,VALID,97.24,VALID,0.011,VALID,20.198,VALID,102.0,VALID,0.0,
2018-09-30, 02:52:06,VALID,915.452,VALID,0.0,VALID,97.191,VALID,-0.016,VALID,20.171,VALID,97.0,VALID,0.0,
2018-09-30, 02:53:06,VALID,915.466,VALID,0.0,VALID,97.068,VALID,-0.004,VALID,20.13,VALID,89.0,VALID,0.0,
2018-09-30, 02:54:06,VALID,915.469,VALID,0.0,VALID,97.052,VALID,-0.001,VALID,20.113,VALID,88.0,VALID,0.0,
2018-09-30, 02:55:06,VALID,915.481,VALID,0.0,VALID,97.168,VALID,0.011,VALID,20.122,VALID,85.0,VALID,0.0,
2018-09-30, 02:56:06,VALID,915.472,VALID,0.0,VALID,97.222,VALID,-0.003,VALID,20.129,VALID,86.0,VALID,0.0,
2018-09-30, 02:57:06,VALID,915.482,VALID,0.0,VALID,97.33,VALID,0.017,VALID,20.142,VALID,88.0,VALID,0.0,
2018-09-30, 02:58:06,VALID,915.455,VALID,0.0,VALID,97.588,VALID,0.015,VALID,20.179,VALID,79.0,VALID,0.0,
2018-09-30, 02:59:06,VALID,915.463,VALID,0.0,VALID,97.687,VALID,0.014,VALID,20.143,VALID,78.0,VALID,0.0,
2018-09-30, 03:00:06,VALID,915.454,VALID,0.0,VALID,97.905,VALID,-0.007,VALID,20.147,VALID,67.0,VALID,0.0,
2018-09-30, 03:01:06,VALID,915.436,VALID,0.0,VALID,98.073,VALID,-0.013,VALID,20.164,VALID,64.0,VALID,0.0,
2018-09-30, 03:02:06,VALID,915.428,VALID,0.0,VALID,98.258,VALID,-0.001,VALID,20.2,VALID,56.0,VALID,0.0,
2018-09-30, 03:03:06,VALID,915.438,VALID,0.0,VALID,98.247,VALID,0.009,VALID,20.159,VALID,59.0,VALID,0.0,
2018-09-30, 03:04:06,VALID,915.436,VALID,0.0,VALID,98.397,VALID,0.01,VALID,20.193,VALID,66.0,VALID,0.0,
2018-09-30, 03:05:06,VALID,915.463,VALID,0.0,VALID,98.455,VALID,-0.001,VALID,20.212,VALID,84.0,VALID,0.0,
2018-09-30, 03:06:06,VALID,915.459,VALID,0.0,VALID,98.496,VALID,0.009,VALID,20.214,VALID,93.0,VALID,0.0,
2018-09-30, 03:07:06,VALID,915.461,VALID,0.0,VALID,98.576,VALID,-0.004,VALID,20.247,VALID,80.0,VALID,0.0,
2018-09-30, 03:08:06,VALID,915.464,VALID,0.0,VALID,98.615,VALID,0.0,VALID,20.278,VALID,85.0,VALID,0.0,
2018-09-30, 03:09:06,VALID,915.461,VALID,0.0,VALID,98.609,VALID,-0.003,VALID,20.25,VALID,91.0,VALID,0.0,
2018-09-30, 03:10:06,VALID,915.447,VALID,0.0,VALID,98.638,VALID,0.013,VALID,20.243,VALID,93.0,VALID,0.0,
2018-09-30, 03:11:06,VALID,915.444,VALID,0.0,VALID,98.626,VALID,0.01,VALID,20.224,VALID,98.0,VALID,0.0,
2018-09-30, 03:12:06,VALID,915.449,VALID,0.0,VALID,98.66,VALID,0.002,VALID,20.218,VALID,105.0,VALID,0.0,
2018-09-30, 03:13:06,VALID,915.436,VALID,0.0,VALID,98.667,VALID,-0.014,VALID,20.222,VALID,108.0,VALID,0.0,
2018-09-30, 03:14:06,VALID,915.443,VALID,0.0,VALID,98.707,VALID,0.005,VALID,20.237,VALID,103.0,VALID,0.0,
2018-09-30, 03:15:06,VALID,915.455,VALID,0.0,VALID,98.736,VALID,-0.009,VALID,20.251,VALID,103.0,VALID,0.0,
2018-09-30, 03:16:06,VALID,915.47,VALID,0.0,VALID,98.752,VALID,0.005,VALID,20.267,VALID,102.0,VALID,0.0,
2018-09-30, 03:17:06,VALID,915.47,VALID,0.0,VALID,98.786,VALID,0.011,VALID,20.266,VALID,93.0,VALID,0.0,
2018-09-30, 03:18:06,VALID,915.489,VALID,0.0,VALID,98.76,VALID,0.009,VALID,20.245,VALID,96.0,VALID,0.0,
2018-09-30, 03:19:06,VALID,915.511,VALID,0.0,VALID,98.772,VALID,0.007,VALID,20.245,VALID,99.0,VALID,0.0,
2018-09-30, 03:20:06,VALID,915.509,VALID,0.0,VALID,98.806,VALID,-0.001,VALID,20.259,VALID,99.0,VALID,0.0,
2018-09-30, 03:21:06,VALID,915.53,VALID,0.0,VALID,98.822,VALID,-0.017,VALID,20.275,VALID,98.0,VALID,0.0,
2018-09-30, 03:22:06,VALID,915.535,VALID,0.0,VALID,98.828,VALID,0.002,VALID,20.277,VALID,93.0,VALID,0.0,
2018-09-30, 03:23:06,VALID,915.535,VALID,0.0,VALID,98.82,VALID,0.004,VALID,20.274,VALID,85.0,VALID,0.0,
2018-09-30, 03:24:06,VALID,915.54,VALID,0.0,VALID,98.81,VALID,0.002,VALID,20.259,VALID,90.0,VALID,0.0,
2018-09-30, 03:25:06,VALID,915.538,VALID,0.0,VALID,98.82,VALID,0.009,VALID,20.234,VALID,84.0,VALID,0.0,
2018-09-30, 03:26:06,VALID,915.56,VALID,0.0,VALID,98.819,VALID,0.007,VALID,20.213,VALID,75.0,VALID,0.0,
2018-09-30, 03:27:06,VALID,915.568,VALID,0.0,VALID,98.839,VALID,0.008,VALID,20.191,VALID,68.0,VALID,0.0,
2018-09-30, 03:28:06,VALID,915.569,VALID,0.0,VALID,98.821,VALID,0.01,VALID,20.169,VALID,79.0,VALID,0.0,
2018-09-30, 03:29:06,VALID,915.56,VALID,0.0,VALID,98.866,VALID,0.009,VALID,20.169,VALID,92.0,VALID,0.0,
2018-09-30, 03:30:06,VALID,915.569,VALID,0.0,VALID,98.843,VALID,0.001,VALID,20.167,VALID,103.0,VALID,0.0,
2018-09-30, 03:31:06,VALID,915.551,VALID,0.0,VALID,98.881,VALID,0.007,VALID,20.193,VALID,105.0,VALID,0.0,
2018-09-30, 03:32:06,VALID,915.55,VALID,0.0,VALID,98.903,VALID,-0.003,VALID,20.211,VALID,105.0,VALID,0.0,
2018-09-30, 03:33:06,VALID,915.528,VALID,0.0,VALID,98.917,VALID,0.003,VALID,20.228,VALID,107.0,VALID,0.0,
2018-09-30, 03:34:06,VALID,915.503,VALID,0.0,VALID,98.909,VALID,0.006,VALID,20.217,VALID,106.0,VALID,0.0,
2018-09-30, 03:35:06,VALID,915.497,VALID,0.0,VALID,98.895,VALID,0.007,VALID,20.184,VALID,102.0,VALID,0.0,
2018-09-30, 03:36:06,VALID,915.482,VALID,0.0,VALID,98.879,VALID,0.011,VALID,20.157,VALID,102.0,VALID,0.0,
2018-09-30, 03:37:06,VALID,915.476,VALID,0.0,VALID,98.906,VALID,0.02,VALID,20.151,VALID,99.0,VALID,0.0,
2018-09-30, 03:38:06,VALID,915.486,VALID,0.0,VALID,98.906,VALID,-0.014,VALID,20.157,VALID,96.0,VALID,0.0,
2018-09-30, 03:39:06,VALID,915.485,VALID,0.0,VALID,98.896,VALID,-0.037,VALID,20.13,VALID,94.0,VALID,0.0,
2018-09-30, 03:40:06,VALID,915.489,VALID,0.0,VALID,98.893,VALID,-0.023,VALID,20.105,VALID,88.0,VALID,0.0,
2018-09-30, 03:41:06,VALID,915.472,VALID,0.0,VALID,98.873,VALID,-0.024,VALID,20.048,VALID,89.0,VALID,0.0,